Location: Falniów
(50.3639°N, 19.9642°E)
Time: 19:55:17
(UTC+00:00)

SL-08 R/B - Pass Details

Date: 23 April 2026
Orbit: 667 x 728 km, 98.5° (Epoch: 13 May)

Event Time Altitude Azimuth Distance (km) Brightness Sun altitude
Rises 20:47:38 0° 4° (N) 3,162 7.6 -22.4°
Reaches altitude 10° 20:50:27 10° 348° (NNW) 2,237 6.9 -22.6°
Maximum altitude 20:53:56 20° 303° (WNW) 1,666 5.9 -22.9°
Drops below altitude 10° 20:57:23 10° 258° (WSW) 2,224 6.1 -23.1°
Sets 21:00:11 0° 241° (WSW) 3,136 6.7 -23.3°
